N282WB KATL-KFLL

Flight info

Callsign N282WB
Flight time N/A
Altitude 41000
Route SMLTZ3 WALET ZPLEN TEEKY4
Aircraft C25B/M-SDE2E3FGHRWXY/LB1

Departure

Time 2026-05-03 22:04
Airport Hartsfield Jackson Atlanta International Airport (KATL)

Arrival

Time N/A
Airport Fort Lauderdale Hollywood International Airport (KFLL)
Time Latitude Longitude Altitude Speed Heading
2026-05-03 21:40 33.65241 -84.42391 1001 ft 0 kts 207°
2026-05-03 21:59 33.65196 -84.42375 1002 ft 16 kts 130°
2026-05-03 22:00 33.65154 -84.42249 1002 ft 14 kts 112°
2026-05-03 22:00 33.65073 -84.42197 1002 ft 14 kts 127°
2026-05-03 22:00 33.65065 -84.42078 1002 ft 15 kts 90°
2026-05-03 22:00 33.65064 -84.41948 1002 ft 16 kts 90°
2026-05-03 22:01 33.65064 -84.41810 1001 ft 17 kts 89°
2026-05-03 22:01 33.65064 -84.41656 1001 ft 20 kts 90°
2026-05-03 22:01 33.65101 -84.41489 1001 ft 21 kts 68°
2026-05-03 22:01 33.65119 -84.41311 1001 ft 22 kts 90°
2026-05-03 22:02 33.65119 -84.41128 1001 ft 21 kts 89°
2026-05-03 22:02 33.65106 -84.40985 1001 ft 10 kts 133°
2026-05-03 22:02 33.65045 -84.40962 1002 ft 10 kts 180°
2026-05-03 22:02 33.64949 -84.40963 1001 ft 21 kts 180°
2026-05-03 22:03 33.64860 -84.40940 1001 ft 10 kts 127°
2026-05-03 22:03 33.64845 -84.40833 1001 ft 17 kts 90°
2026-05-03 22:03 33.64845 -84.40671 1001 ft 21 kts 89°
2026-05-03 22:03 33.64763 -84.40567 1000 ft 20 kts 180°
2026-05-03 22:04 33.64680 -84.40613 999 ft 0 kts 269°
2026-05-03 22:04 33.64679 -84.40915 1002 ft 94 kts 270°
2026-05-03 22:04 33.64662 -84.42053 1312 ft 166 kts 270°
2026-05-03 22:04 33.64649 -84.43615 2236 ft 206 kts 271°
2026-05-03 22:05 33.64655 -84.45461 3490 ft 234 kts 273°
2026-05-03 22:05 33.64999 -84.47459 4355 ft 251 kts 286°
2026-05-03 22:05 33.65421 -84.49534 4945 ft 257 kts 281°
2026-05-03 22:05 33.65745 -84.51640 5369 ft 260 kts 283°
2026-05-03 22:06 33.66159 -84.53763 5828 ft 259 kts 284°
2026-05-03 22:06 33.66534 -84.55874 6274 ft 261 kts 281°
2026-05-03 22:06 33.66495 -84.58080 6592 ft 268 kts 262°
2026-05-03 22:06 33.66054 -84.60227 6947 ft 272 kts 250°
2026-05-03 22:07 33.65095 -84.62194 7339 ft 273 kts 240°
2026-05-03 22:07 33.64168 -84.64182 7731 ft 272 kts 242°
2026-05-03 22:07 33.62869 -84.65824 8180 ft 276 kts 217°
2026-05-03 22:07 33.61033 -84.66506 8538 ft 285 kts 182°
2026-05-03 22:08 33.59127 -84.65839 8923 ft 291 kts 151°
2026-05-03 22:08 33.57434 -84.64492 9294 ft 294 kts 146°
2026-05-03 22:08 33.55777 -84.63046 9679 ft 296 kts 144°
2026-05-03 22:08 33.54090 -84.61616 10031 ft 298 kts 147°
2026-05-03 22:09 33.52366 -84.60223 10359 ft 300 kts 147°
2026-05-03 22:09 33.51226 -84.59286 10573 ft 301 kts 147°
2026-05-03 22:09 33.49498 -84.57857 10898 ft 302 kts 147°
2026-05-03 22:10 33.46067 -84.55026 11998 ft 300 kts 147°
2026-05-03 22:10 33.44342 -84.53614 12707 ft 302 kts 148°
2026-05-03 22:10 33.42599 -84.52187 13379 ft 305 kts 148°
2026-05-03 22:10 33.40842 -84.50737 14022 ft 308 kts 148°
2026-05-03 22:11 33.39067 -84.49282 14612 ft 311 kts 148°
2026-05-03 22:11 33.37281 -84.47808 15208 ft 313 kts 148°
2026-05-03 22:11 33.35475 -84.46338 15784 ft 316 kts 148°
2026-05-03 22:11 33.33663 -84.44839 16364 ft 318 kts 149°
2026-05-03 22:12 33.31826 -84.43346 16932 ft 320 kts 149°
2026-05-03 22:12 33.29984 -84.41828 17496 ft 323 kts 148°
2026-05-03 22:12 33.28120 -84.40306 18058 ft 325 kts 149°
2026-05-03 22:12 33.26244 -84.38767 18577 ft 328 kts 149°
2026-05-03 22:13 33.24354 -84.37223 19074 ft 330 kts 149°
2026-05-03 22:13 33.22446 -84.35669 19444 ft 337 kts 149°
2026-05-03 22:13 33.20483 -84.34056 19760 ft 343 kts 149°
2026-05-03 22:13 33.18526 -84.32459 20416 ft 337 kts 149°
2026-05-03 22:14 33.16582 -84.30876 20910 ft 340 kts 149°
2026-05-03 22:14 33.14625 -84.29277 21363 ft 342 kts 149°
2026-05-03 22:14 33.12651 -84.27673 21836 ft 345 kts 149°
2026-05-03 22:14 33.10667 -84.26047 22272 ft 348 kts 149°
2026-05-03 22:15 33.08608 -84.24382 22202 ft 366 kts 150°
2026-05-03 22:15 33.06469 -84.22640 22151 ft 380 kts 149°
2026-05-03 22:15 33.04240 -84.20827 22026 ft 394 kts 149°
2026-05-03 22:15 33.01960 -84.18966 22076 ft 399 kts 149°
2026-05-03 22:16 32.99595 -84.17258 22128 ft 397 kts 159°
2026-05-03 22:16 32.97011 -84.16079 22137 ft 399 kts 165°
2026-05-03 22:16 32.94379 -84.14974 22138 ft 403 kts 165°
2026-05-03 22:16 32.91716 -84.13900 22139 ft 406 kts 166°
2026-05-03 22:17 32.89035 -84.12805 22139 ft 409 kts 165°
2026-05-03 22:17 32.86357 -84.11691 22416 ft 402 kts 165°
2026-05-03 22:17 32.83805 -84.10626 23595 ft 375 kts 165°
2026-05-03 22:17 32.81408 -84.09642 24432 ft 361 kts 167°
2026-05-03 22:18 32.79015 -84.08678 24709 ft 365 kts 167°
2026-05-03 22:18 32.76612 -84.07686 25051 ft 366 kts 166°
2026-05-03 22:18 32.74206 -84.06698 25369 ft 367 kts 168°
2026-05-03 22:18 32.71786 -84.05700 25712 ft 368 kts 168°
2026-05-03 22:19 32.69358 -84.04711 26007 ft 370 kts 168°
2026-05-03 22:19 32.66958 -84.03725 26320 ft 371 kts 168°
2026-05-03 22:19 32.64513 -84.02723 26633 ft 372 kts 168°
2026-05-03 22:19 32.62062 -84.01720 26953 ft 374 kts 168°
2026-05-03 22:20 32.59596 -84.00709 27265 ft 375 kts 169°
2026-05-03 22:20 32.57121 -83.99703 27582 ft 377 kts 169°
2026-05-03 22:20 32.54673 -83.98688 28313 ft 366 kts 169°
2026-05-03 22:20 32.52267 -83.97709 28726 ft 367 kts 170°
2026-05-03 22:21 32.49841 -83.96728 29062 ft 370 kts 169°
2026-05-03 22:21 32.47406 -83.95737 29407 ft 371 kts 170°
2026-05-03 22:21 32.44964 -83.94735 29777 ft 372 kts 170°
2026-05-03 22:21 32.42512 -83.93736 30126 ft 373 kts 171°
2026-05-03 22:22 32.40049 -83.92733 30420 ft 375 kts 171°
2026-05-03 22:22 32.37558 -83.91963 30659 ft 364 kts 181°
2026-05-03 22:22 32.35082 -83.91926 30957 ft 351 kts 194°
2026-05-03 22:22 32.32693 -83.92381 31236 ft 346 kts 199°
2026-05-03 22:23 32.30370 -83.92984 31891 ft 333 kts 201°
2026-05-03 22:23 32.28129 -83.93607 32385 ft 331 kts 202°
2026-05-03 22:23 32.25883 -83.94245 32691 ft 332 kts 202°
2026-05-03 22:23 32.23637 -83.94883 33033 ft 333 kts 202°
2026-05-03 22:24 32.21395 -83.95584 33342 ft 331 kts 205°
2026-05-03 22:24 32.19223 -83.96456 33621 ft 329 kts 207°
2026-05-03 22:24 32.17028 -83.97246 33976 ft 331 kts 205°
2026-05-03 22:24 32.14805 -83.97985 34244 ft 332 kts 205°
2026-05-03 22:25 32.12570 -83.98711 34474 ft 334 kts 204°
2026-05-03 22:25 32.10323 -83.99439 34691 ft 336 kts 204°
2026-05-03 22:25 32.08074 -84.00157 35084 ft 332 kts 204°
2026-05-03 22:25 32.05849 -84.00861 35366 ft 333 kts 204°
2026-05-03 22:26 32.03599 -84.01566 35754 ft 335 kts 204°
2026-05-03 22:26 32.01339 -84.02276 36136 ft 338 kts 204°
2026-05-03 22:26 31.99057 -84.02986 36491 ft 340 kts 204°
2026-05-03 22:26 31.96760 -84.03700 36843 ft 343 kts 204°
2026-05-03 22:27 31.94451 -84.04429 37168 ft 343 kts 206°
2026-05-03 22:27 31.92187 -84.05307 37459 ft 346 kts 205°
2026-05-03 22:27 31.89798 -84.05876 37811 ft 355 kts 200°
2026-05-03 22:27 31.87294 -84.06111 38101 ft 367 kts 193°
2026-05-03 22:28 31.84740 -84.05979 38395 ft 379 kts 186°
2026-05-03 22:28 31.82065 -84.05438 38668 ft 393 kts 179°
2026-05-03 22:28 31.79414 -84.04465 38930 ft 406 kts 172°
2026-05-03 22:28 31.76851 -84.03065 39182 ft 419 kts 164°
2026-05-03 22:29 31.74359 -84.01188 39440 ft 433 kts 155°
2026-05-03 22:29 31.72041 -83.98849 39696 ft 447 kts 146°
2026-05-03 22:29 31.69973 -83.96056 39956 ft 460 kts 137°
2026-05-03 22:29 31.68234 -83.92841 40217 ft 473 kts 127°
2026-05-03 22:30 31.66898 -83.89258 40453 ft 485 kts 117°
2026-05-03 22:30 31.66034 -83.85383 40699 ft 496 kts 106°
2026-05-03 22:30 31.65551 -83.81364 40958 ft 497 kts 105°
2026-05-03 22:30 31.64737 -83.77459 41092 ft 490 kts 116°
2026-05-03 22:31 31.63393 -83.73829 41119 ft 482 kts 128°
2026-05-03 22:31 31.61556 -83.70595 41118 ft 468 kts 140°
2026-05-03 22:31 31.59350 -83.67922 41118 ft 444 kts 152°
2026-05-03 22:31 31.56900 -83.65901 41118 ft 420 kts 164°
2026-05-03 22:32 31.54303 -83.64565 41119 ft 395 kts 175°
2026-05-03 22:32 31.49114 -83.63088 41122 ft 374 kts 184°
2026-05-03 22:33 31.44003 -83.61870 41122 ft 384 kts 178°
2026-05-03 22:33 31.38841 -83.59979 41122 ft 389 kts 178°
2026-05-03 22:34 31.33603 -83.58344 41124 ft 392 kts 178°
2026-05-03 22:34 31.28328 -83.56581 41131 ft 396 kts 178°
2026-05-03 22:35 31.23051 -83.54866 41136 ft 398 kts 178°
2026-05-03 22:35 31.17667 -83.53101 41115 ft 400 kts 178°
2026-05-03 22:36 31.12304 -83.51353 41134 ft 401 kts 178°
2026-05-03 22:36 31.06964 -83.49609 41111 ft 401 kts 178°
2026-05-03 22:37 31.01589 -83.47857 41133 ft 401 kts 178°
2026-05-03 22:37 30.96213 -83.46109 41137 ft 401 kts 178°
2026-05-03 22:38 30.90831 -83.44358 41142 ft 402 kts 178°
2026-05-03 22:38 30.85448 -83.42611 41126 ft 402 kts 178°
2026-05-03 22:39 30.80053 -83.40861 41124 ft 402 kts 178°
2026-05-03 22:39 30.74662 -83.39113 41114 ft 403 kts 178°
2026-05-03 22:40 30.69263 -83.37368 41117 ft 403 kts 178°
2026-05-03 22:40 30.63863 -83.35622 41120 ft 403 kts 178°
2026-05-03 22:41 30.58456 -83.33877 41124 ft 403 kts 178°
2026-05-03 22:41 30.53053 -83.32134 41124 ft 403 kts 178°
2026-05-03 22:42 30.47683 -83.30405 41128 ft 403 kts 178°
2026-05-03 22:42 30.42276 -83.28664 41125 ft 403 kts 178°
2026-05-03 22:43 30.36869 -83.26927 41124 ft 403 kts 178°
2026-05-03 22:43 30.31460 -83.25190 41124 ft 403 kts 178°
2026-05-03 22:44 30.26054 -83.23458 41122 ft 403 kts 178°
2026-05-03 22:44 30.20650 -83.21726 41111 ft 402 kts 179°
2026-05-03 22:45 30.15255 -83.20002 41114 ft 402 kts 179°
2026-05-03 22:45 30.09865 -83.18279 41109 ft 402 kts 179°
2026-05-03 22:46 30.04472 -83.16548 41114 ft 405 kts 177°
2026-05-03 22:46 30.01821 -83.15232 41094 ft 426 kts 165°
2026-05-03 22:46 29.99333 -83.13235 41106 ft 446 kts 153°
2026-05-03 22:46 29.97122 -83.10624 41100 ft 466 kts 141°
2026-05-03 22:47 29.95284 -83.07466 41097 ft 483 kts 129°
2026-05-03 22:47 29.93915 -83.03866 41095 ft 498 kts 117°
2026-05-03 22:47 29.93080 -82.99945 41095 ft 510 kts 105°
2026-05-03 22:47 29.92828 -82.95834 41097 ft 519 kts 94°
2026-05-03 22:48 29.93062 -82.91670 41101 ft 522 kts 88°
2026-05-03 22:48 29.94013 -82.83359 41107 ft 523 kts 84°
2026-05-03 22:49 29.95108 -82.75116 41101 ft 523 kts 84°
2026-05-03 22:49 29.96258 -82.66828 41102 ft 524 kts 84°
2026-05-03 22:50 29.97358 -82.58526 41099 ft 521 kts 89°
2026-05-03 22:50 29.97348 -82.54382 41111 ft 513 kts 101°
2026-05-03 22:50 29.96745 -82.50377 41116 ft 502 kts 113°
2026-05-03 22:50 29.95588 -82.46649 41128 ft 487 kts 125°
2026-05-03 22:51 29.93932 -82.43311 41115 ft 470 kts 137°
2026-05-03 22:51 29.91909 -82.40424 41115 ft 458 kts 144°
2026-05-03 22:51 29.89697 -82.37854 41122 ft 446 kts 152°
2026-05-03 22:52 29.85093 -82.33123 41110 ft 449 kts 150°
2026-05-03 22:52 29.80791 -82.27787 41101 ft 454 kts 147°
2026-05-03 22:53 29.76342 -82.22710 41103 ft 450 kts 149°
2026-05-03 22:53 29.71949 -82.17513 41105 ft 453 kts 148°
2026-05-03 22:54 29.67525 -82.12365 41110 ft 452 kts 149°
2026-05-03 22:54 29.63104 -82.07202 41112 ft 454 kts 148°
2026-05-03 22:55 29.58678 -82.02043 41052 ft 453 kts 149°
2026-05-03 22:55 29.54253 -81.96898 41099 ft 453 kts 149°
2026-05-03 22:56 29.49820 -81.91744 41108 ft 454 kts 149°
2026-05-03 22:56 29.45406 -81.86622 41104 ft 454 kts 149°
2026-05-03 22:57 29.40957 -81.81466 40967 ft 455 kts 149°
2026-05-03 22:57 29.38764 -81.78913 40727 ft 443 kts 149°
2026-05-03 22:57 29.36631 -81.76429 40479 ft 431 kts 150°
2026-05-03 22:57 29.34543 -81.74024 40230 ft 420 kts 150°
2026-05-03 22:58 29.32511 -81.71681 40113 ft 408 kts 151°
2026-05-03 22:58 29.30550 -81.69408 40101 ft 394 kts 152°
2026-05-03 22:58 29.28660 -81.67217 40101 ft 380 kts 153°
2026-05-03 22:59 29.25629 -81.63726 40101 ft 358 kts 154°
2026-05-03 22:59 29.22045 -81.59646 40104 ft 371 kts 153°
2026-05-03 22:59 29.20186 -81.57511 40103 ft 386 kts 153°
2026-05-03 23:00 29.18255 -81.55285 40111 ft 401 kts 152°
2026-05-03 23:00 29.16284 -81.53014 40122 ft 414 kts 152°
2026-05-03 23:00 29.14222 -81.50636 40122 ft 426 kts 151°
2026-05-03 23:00 29.12106 -81.48207 40123 ft 437 kts 150°
2026-05-03 23:01 29.09941 -81.45717 40124 ft 446 kts 150°
2026-05-03 23:01 29.05484 -81.40599 40120 ft 461 kts 150°
2026-05-03 23:02 29.00993 -81.35428 40121 ft 452 kts 150°
2026-05-03 23:02 28.96549 -81.30370 40053 ft 452 kts 150°
2026-05-03 23:03 28.92110 -81.25291 40105 ft 452 kts 150°
2026-05-03 23:03 28.87653 -81.20209 40105 ft 453 kts 150°
2026-05-03 23:04 28.83187 -81.15118 40096 ft 454 kts 150°
2026-05-03 23:04 28.78712 -81.10025 40093 ft 455 kts 150°
2026-05-03 23:05 28.74232 -81.04933 40095 ft 455 kts 150°
2026-05-03 23:05 28.69746 -80.99839 40095 ft 456 kts 150°
2026-05-03 23:06 28.65253 -80.94746 40028 ft 456 kts 149°
2026-05-03 23:06 28.60770 -80.89666 40085 ft 455 kts 149°
2026-05-03 23:07 28.56273 -80.84586 40085 ft 456 kts 149°
2026-05-03 23:07 28.51768 -80.79494 40087 ft 457 kts 149°
2026-05-03 23:08 28.47252 -80.74403 40087 ft 457 kts 149°
2026-05-03 23:08 28.42761 -80.69341 40084 ft 458 kts 149°
2026-05-03 23:09 28.38236 -80.64250 40080 ft 458 kts 149°
2026-05-03 23:09 28.33705 -80.59159 39992 ft 458 kts 149°
2026-05-03 23:10 28.29181 -80.54081 40030 ft 458 kts 149°
2026-05-03 23:10 28.24655 -80.49007 40032 ft 458 kts 149°
2026-05-03 23:11 28.20119 -80.43933 40035 ft 458 kts 149°
2026-05-03 23:11 28.15595 -80.38868 40040 ft 453 kts 149°
2026-05-03 23:12 28.11075 -80.34136 40052 ft 425 kts 158°
2026-05-03 23:12 28.08665 -80.32305 40049 ft 408 kts 165°
2026-05-03 23:12 28.06198 -80.30863 40052 ft 391 kts 172°
2026-05-03 23:12 28.03705 -80.29776 40057 ft 377 kts 178°
2026-05-03 23:13 28.01230 -80.28826 40044 ft 374 kts 177°
2026-05-03 23:13 27.96336 -80.26904 39937 ft 373 kts 177°
2026-05-03 23:13 27.93844 -80.25948 39477 ft 384 kts 176°
2026-05-03 23:14 27.91280 -80.24953 38963 ft 395 kts 176°
2026-05-03 23:14 27.88654 -80.23924 38392 ft 404 kts 175°
2026-05-03 23:14 27.85989 -80.22870 37848 ft 407 kts 175°
2026-05-03 23:14 27.83320 -80.21826 37316 ft 405 kts 175°
2026-05-03 23:15 27.80662 -80.20791 36779 ft 404 kts 175°
2026-05-03 23:15 27.78008 -80.19764 36252 ft 402 kts 175°
2026-05-03 23:15 27.75365 -80.18732 35715 ft 401 kts 175°
2026-05-03 23:15 27.72730 -80.17708 35191 ft 400 kts 175°
2026-05-03 23:16 27.70103 -80.16686 34653 ft 398 kts 174°
2026-05-03 23:16 27.67490 -80.15669 34135 ft 396 kts 174°
2026-05-03 23:16 27.64885 -80.14661 33581 ft 395 kts 174°
2026-05-03 23:16 27.62292 -80.13649 33057 ft 393 kts 174°
2026-05-03 23:17 27.59723 -80.12598 32543 ft 393 kts 172°
2026-05-03 23:17 27.57156 -80.11533 32027 ft 394 kts 172°
2026-05-03 23:17 27.54573 -80.10476 31508 ft 396 kts 172°
2026-05-03 23:17 27.52008 -80.09422 30992 ft 399 kts 171°
2026-05-03 23:18 27.49364 -80.08329 30464 ft 401 kts 171°
2026-05-03 23:18 27.46770 -80.07263 29902 ft 403 kts 170°
2026-05-03 23:18 27.44143 -80.06174 29360 ft 402 kts 170°
2026-05-03 23:18 27.41503 -80.05097 28824 ft 406 kts 170°
2026-05-03 23:19 27.38841 -80.04004 28285 ft 408 kts 170°
2026-05-03 23:19 27.36140 -80.03148 27748 ft 402 kts 176°
2026-05-03 23:19 27.33419 -80.02339 27215 ft 406 kts 173°
2026-05-03 23:19 27.30700 -80.01455 26668 ft 407 kts 173°
2026-05-03 23:20 27.27976 -80.00614 26139 ft 404 kts 174°
2026-05-03 23:20 27.25271 -79.99788 25607 ft 403 kts 173°
2026-05-03 23:20 27.22603 -79.98803 25074 ft 403 kts 171°
2026-05-03 23:20 27.19942 -79.97837 24546 ft 400 kts 172°
2026-05-03 23:21 27.17295 -79.96896 24020 ft 396 kts 171°
2026-05-03 23:21 27.14687 -79.95955 23485 ft 392 kts 171°
2026-05-03 23:21 27.12105 -79.95024 22942 ft 387 kts 171°
2026-05-03 23:21 27.09564 -79.94102 22438 ft 382 kts 170°
2026-05-03 23:22 27.04576 -79.92204 21453 ft 377 kts 167°
2026-05-03 23:22 27.02124 -79.91201 20960 ft 374 kts 168°
2026-05-03 23:22 26.99679 -79.90226 20469 ft 372 kts 168°
2026-05-03 23:23 26.97246 -79.89248 19981 ft 371 kts 167°
2026-05-03 23:23 26.94815 -79.88269 19491 ft 370 kts 167°
2026-05-03 23:23 26.92393 -79.87287 19006 ft 370 kts 167°
2026-05-03 23:23 26.89982 -79.86315 18517 ft 368 kts 167°
2026-05-03 23:24 26.87568 -79.85349 18000 ft 367 kts 167°
2026-05-03 23:24 26.85173 -79.84377 17514 ft 365 kts 167°
2026-05-03 23:24 26.82790 -79.83425 17031 ft 363 kts 167°